This demonstration page uses our WeatherBlox Daily Observations layout. Learn more.

Left ArrowRight Arrow

Hourly Observations for August 1, 2021

Temp ( °F °C ) Dew Point ( °F °C ) Humidity (%) Winds ( mph kmh ) Pressure ( in mb ) Visibility ( mi km ) Precip ( " mm )
12:15 am 00:15 Clear with Mist and Fog 56 13.5 55 13 97 97 Calm 29.98 1015 5 8 0.00 0.00
12:35 am 00:35 Clear with Mist and Fog 56 13.2 55 12.8 97 97 W 3 6 29.99 1016 5 8 0.00 0.00
12:55 am 00:55 Clear with Mist and Fog 56 13.1 55 12.6 97 97 Calm 29.98 1015 5 8 0.00 0.00
1:15 am 01:15 Clear with Mist and Fog 55 12.8 54 12.3 97 97 Calm 29.98 1015 5 8 0.00 0.00
1:35 am 01:35 Clear with Mist and Fog 56 13.3 55 12.9 97 97 W 5 7 29.98 1015 5 8 0.00 0.00
1:55 am 01:55 Clear 58 14.2 56 13.5 96 96 W 5 7 29.98 1015 7 11 0.00 0.00
2:15 am 02:15 Clear 58 14.5 56 13.5 94 94 W 5 7 29.98 1015 7 11 0.00 0.00
2:35 am 02:35 Clear 58 14.5 56 13.3 93 93 W 5 7 29.98 1015 7 11 0.00 0.00
2:55 am 02:55 Clear 58 14.6 56 13.4 93 93 W 6 9 29.97 1015 7 11 0.00 0.00
3:15 am 03:15 Clear 58 14.4 56 13.2 93 93 WNW 3 6 29.97 1015 7 11 0.00 0.00
3:35 am 03:35 Clear 58 14.5 56 13.3 93 93 W 5 7 29.97 1015 7 11 0.00 0.00
3:55 am 03:55 Clear 58 14.3 56 13.2 93 93 W 3 6 29.97 1015 7 11 0.00 0.00
4:15 am 04:15 Clear 58 14.7 56 13.5 93 93 WNW 5 7 29.96 1015 7 11 0.00 0.00
4:35 am 04:35 Clear 59 14.8 56 13.6 93 93 WNW 5 7 29.96 1015 7 11 0.00 0.00
4:55 am 04:55 Partly Cloudy 59 15 57 13.8 93 93 W 6 9 29.96 1015 7 11 0.00 0.00
5:15 am 05:15 Partly Cloudy 59 14.8 57 13.7 93 93 WNW 5 7 29.96 1015 7 11 0.00 0.00
5:35 am 05:35 Partly Cloudy 58 14.7 57 13.7 94 94 W 6 9 29.95 1014 7 11 0.00 0.00
5:55 am 05:55 Clear with Mist and Fog 58 14.6 57 13.7 94 94 W 5 7 29.95 1014 5 8 0.00 0.00
6:15 am 06:15 Clear with Mist and Fog 58 14.6 57 13.7 94 94 W 5 7 29.95 1014 5 8 0.00 0.00
6:35 am 06:35 Clear with Mist and Fog 58 14.6 57 13.7 94 94 W 5 7 29.95 1014 5 8 0.00 0.00
6:55 am 06:55 Sunny with Mist and Fog 59 14.8 57 14 95 95 WNW 5 7 29.95 1014 5 8 0.00 0.00
7:15 am 07:15 Sunny with Mist and Fog 59 15 57 14.1 94 94 W 6 9 29.96 1015 4 6 0.00 0.00
7:35 am 07:35 Sunny with Mist and Fog 60 15.5 58 14.5 94 94 W 5 7 29.96 1015 5 8 0.00 0.00
7:55 am 07:55 Sunny with Mist and Fog 61 16 59 15 94 94 W 5 7 29.96 1015 5 8 0.00 0.00
8:15 am 08:15 Sunny with Mist and Fog 62 16.7 60 15.5 93 93 W 6 9 29.97 1015 5 8 0.00 0.00
8:35 am 08:35 Sunny with Mist and Fog 64 17.5 61 16 91 91 W 6 9 29.96 1015 5 8 0.00 0.00
8:55 am 08:55 Sunny with Mist and Fog 64 18 61 16.3 90 90 WNW 8 13 29.97 1015 5 8 0.00 0.00
9:15 am 09:15 Sunny with Mist and Fog 65 18.5 62 16.6 89 89 WNW 7 11 29.97 1015 5 8 0.00 0.00
9:35 am 09:35 Sunny with Mist and Fog 66 18.8 62 16.7 88 88 W 8 13 29.97 1015 5 8 0.00 0.00
9:55 am 09:55 Partly Cloudy with Mist and Fog 67 19.6 63 17.4 87 87 WNW 5 7 29.98 1015 5 8 0.00 0.00
10:15 am 10:15 Mostly Cloudy with Haze 68 19.9 64 17.5 86 86 WNW 6 9 29.98 1015 5 8 0.00 0.00
10:35 am 10:35 Cloudy with Haze 69 20.5 64 17.9 85 85 NW 6 9 29.97 1015 5 8 0.00 0.00
10:55 am 10:55 Cloudy with Haze 69 20.5 64 17.8 85 85 WNW 6 9 29.97 1015 5 8 0.00 0.00
11:15 am 11:15 Mostly Cloudy with Haze 71 21.4 65 18.3 83 83 NW 5 7 29.98 1015 5 8 0.00 0.00
11:35 am 11:35 Mostly Cloudy with Haze 71 21.6 65 18.3 82 82 NW 6 9 29.99 1016 5 8 0.00 0.00
11:55 am 11:55 Cloudy with Haze 71 21.5 65 18.5 83 83 NW 5 7 29.99 1016 5 8 0.00 0.00
12:15 pm 12:15 Cloudy with Haze 72 22.3 66 18.8 81 81 WNW 3 6 29.99 1016 5 8 0.00 0.00
12:35 pm 12:35 Cloudy with Haze 73 22.8 65 18.5 77 77 WNW 5 7 29.99 1015 5 8 0.00 0.00
12:55 pm 12:55 Mostly Cloudy 74 23.6 66 19 75 75 NW 7 11 29.97 1015 7 11 0.00 0.00
1:15 pm 13:15 Mostly Cloudy 75 24 65 18.3 71 71 NW 8 13 29.97 1015 7 11 0.00 0.00
1:35 pm 13:35 Cloudy 75 24 66 18.7 72 72 NW 8 13 29.97 1015 7 11 0.00 0.00
1:55 pm 13:55 Mostly Cloudy 77 25 64 17.8 64 64 NNW 8 13 29.97 1015 7 11 0.00 0.00
2:15 pm 14:15 Partly Cloudy 76 24.5 65 18.1 68 68 NNW 9 15 29.97 1015 7 11 0.00 0.00
2:35 pm 14:35 Partly Cloudy 77 25.1 64 17.6 63 63 NNW 12 19 29.96 1015 10 16 0.00 0.00
2:55 pm 14:55 Mostly Cloudy with Light Rain 72 22.1 64 17.6 76 76 NNW 7 11 29.98 1015 5 8 0.01 0.25
3:15 pm 15:15 Cloudy 73 22.6 64 17.8 74 74 NW 3 6 29.98 1015 10 16 0.00 0.00
3:35 pm 15:35 Mostly Cloudy 75 23.9 60 15.8 61 61 N 10 17 29.98 1015 10 16 0.00 0.00
3:55 pm 15:55 Partly Cloudy 76 24.7 59 14.8 54 54 NNW 14 22 29.98 1015 10 16 0.00 0.00
4:15 pm 16:15 Partly Cloudy 77 25 56 13.4 49 49 NNW 13 20 29.98 1015 10 16 0.00 0.00
4:35 pm 16:35 Sunny 77 25 56 13.4 49 49 NNW 12 19 29.98 1015 10 16 0.00 0.00
4:55 pm 16:55 Sunny 76 24.7 57 14 51 51 N 14 22 29.99 1016 10 16 0.00 0.00
5:15 pm 17:15 Sunny 76 24.6 57 14 52 52 N 14 22 29.99 1016 10 16 0.00 0.00
5:35 pm 17:35 Partly Cloudy 76 24.3 57 13.9 52 52 N 13 20 29.99 1016 10 16 0.00 0.00
5:55 pm 17:55 Partly Cloudy 76 24.2 57 13.8 52 52 NNW 9 15 30.00 1016 10 16 0.00 0.00
6:15 pm 18:15 Partly Cloudy 75 24 56 13.4 52 52 N 9 15 30.00 1016 10 16 0.00 0.00
6:35 pm 18:35 Sunny 74 23.5 55 13 52 52 N 9 15 30.00 1016 7 11 0.00 0.00
6:55 pm 18:55 Sunny 73 23 57 13.9 57 57 N 7 11 30.01 1016 7 11 0.00 0.00
7:15 pm 19:15 Sunny 73 22.5 56 13.2 56 56 N 12 19 30.02 1017 7 11 0.00 0.00
7:35 pm 19:35 Sunny 72 22 56 13.2 58 58 N 7 11 30.02 1017 7 11 0.00 0.00
7:55 pm 19:55 Sunny 71 21.5 55 12.6 57 57 N 8 13 30.03 1017 7 11 0.00 0.00
8:15 pm 20:15 Sunny 69 20.7 54 12.2 58 58 N 10 17 30.04 1017 10 16 0.00 0.00
8:35 pm 20:35 Sunny 68 19.8 53 11.9 61 61 N 6 9 30.05 1018 10 16 0.00 0.00
8:55 pm 20:55 Sunny 66 18.7 52 11.3 62 62 NNW 7 11 30.05 1018 10 16 0.00 0.00
9:15 pm 21:15 Clear 65 18.1 52 10.9 63 63 N 6 9 30.06 1018 10 16 0.00 0.00
9:35 pm 21:35 Clear 63 17.3 51 10.7 65 65 N 6 9 30.07 1018 10 16 0.00 0.00
9:55 pm 21:55 Clear 62 16.8 51 10.7 67 67 NNW 7 11 30.08 1019 10 16 0.00 0.00
10:15 pm 22:15 Clear 61 15.9 52 11 73 73 NNW 6 9 30.08 1019 10 16 0.00 0.00
10:35 pm 22:35 Clear 60 15.4 52 11.1 76 76 NNW 6 9 30.09 1019 10 16 0.00 0.00
10:55 pm 22:55 Clear 60 15.4 52 11.1 76 76 NNW 5 7 30.09 1019 10 16 0.00 0.00
11:15 pm 23:15 Clear 58 14.2 52 11.3 83 83 NNW 6 9 30.10 1019 10 16 0.00 0.00
11:35 pm 23:35 Clear 58 14.5 52 11.1 80 80 N 7 11 30.10 1019 10 16 0.00 0.00
11:55 pm 23:55 Clear 58 14.2 52 11.1 82 82 NNW 6 9 30.11 1020 10 16 0.00 0.00

Powered by AerisWeather